Theta_e
351 350 350 351 350 348 348 346 345 346 346 347 348 349 350 350 351 351 351 350 351 350 350 350 349 348 349 348 348 350 350 350 350 349 351 352 353 354 353 351 349 347
350 349 349 350 351 350 349 348 346 346 346 347 348 347 348 347 348 349 350 350 350 351 351 350 349 348 350 351 351 351 351 351 351 349 349 349 350 353 353 351 349 346
350 350 350 351 352 351 350 349 348 346 345 345 344 345 346 346 346 347 349 349 350 351 351 350 349 349 352 354 353 352 351 352 352 350 348 347 348 350 350 350 349 346
351 351 351 351 351 351 351 350 349 346 344 343 342 343 344 345 344 346 349 349 349 349 349 350 350 350 353 354 353 352 351 350 351 351 351 348 348 348 348 349 348 347
353 352 352 352 352 352 352 351 349 348 345 343 343 342 343 344 344 344 347 349 348 348 348 348 350 350 351 352 352 352 351 350 349 350 351 351 350 350 349 349 348 348
354 353 353 354 353 353 352 350 349 348 346 344 343 342 342 343 344 345 346 348 349 349 348 347 348 349 349 350 350 351 351 349 349 348 349 350 351 352 352 350 349 350
353 353 354 354 354 353 352 350 349 348 347 345 344 342 342 341 343 345 346 347 349 349 348 346 346 348 348 349 349 350 350 350 349 348 348 348 350 353 353 351 350 352
352 353 353 353 353 352 352 350 348 348 347 346 344 343 344 344 343 344 345 347 347 347 347 346 345 345 346 347 348 348 349 350 350 349 349 350 352 354 354 353 354 355
352 352 353 352 352 352 352 350 348 347 346 345 344 344 345 346 345 344 344 345 345 345 346 346 345 346 345 346 346 347 348 349 349 349 349 350 354 356 356 356 356 356
352 352 353 352 351 351 352 350 349 349 348 347 346 345 345 345 345 344 344 345 345 345 346 346 346 346 346 345 345 346 347 348 348 349 349 351 352 355 357 358 358 357
350 351 352 352 352 351 351 350 349 349 349 348 348 347 347 346 345 345 346 346 346 345 345 346 347 347 346 346 346 346 347 347 347 349 350 351 352 354 356 359 359 357
355 353 353 352 352 351 351 350 349 348 348 348 348 348 347 346 346 345 345 346 347 346 345 345 346 347 347 346 346 347 347 347 348 349 350 351 352 355 356 357 357 356
359 358 357 356 354 353 351 351 349 348 348 347 348 348 348 347 345 345 345 345 346 346 346 345 346 347 347 347 347 347 347 348 348 349 351 351 351 354 357 356 355 354
358 358 358 357 356 355 354 353 353 350 349 348 347 348 348 348 347 346 346 345 346 346 345 345 346 346 347 348 348 347 348 349 349 349 350 351 351 354 356 357 357 356
356 357 356 354 353 353 354 354 354 353 352 351 350 348 348 348 347 347 347 346 345 345 345 346 346 346 347 349 349 348 349 349 349 350 350 350 352 354 355 357 359 357
350 351 352 352 352 353 353 354 354 354 354 354 354 352 350 349 348 348 347 347 346 346 345 346 347 346 347 348 349 349 349 350 350 350 350 350 351 353 354 356 357 358
353 353 354 356 357 357 357 358 358 357 357 356 357 356 353 352 352 351 351 349 348 347 346 346 347 347 348 348 348 348 349 351 351 351 352 352 352 353 354 355 355 356
359 359 359 359 359 360 359 360 359 358 358 358 358 358 356 355 355 355 355 353 351 350 349 348 347 347 347 348 348 349 350 350 351 351 351 352 352 352 351 352 355 357
359 359 359 358 359 359 359 358 357 357 358 357 358 357 356 356 356 356 355 354 353 353 352 351 349 347 347 347 348 349 350 350 350 349 349 352 354 353 351 352 355 357
358 358 359 358 358 357 357 357 356 356 356 356 358 357 356 356 356 354 353 352 353 354 354 354 353 350 349 348 347 348 349 350 350 349 350 354 356 355 353 352 352 354
355 355 356 358 357 356 356 356 357 356 356 357 358 357 355 356 356 355 353 353 353 353 355 355 354 351 350 349 348 348 349 350 350 350 350 352 353 354 353 351 350 352
354 352 352 353 353 353 352 354 355 356 356 356 356 355 355 356 356 355 354 355 354 354 355 356 354 352 350 349 348 348 348 349 350 351 351 352 352 354 355 354 353 353
353 352 350 349 350 351 351 352 353 353 354 355 355 355 356 355 355 354 354 355 355 354 355 356 356 354 352 350 349 349 348 348 349 350 351 352 352 354 356 358 358 358
353 353 352 350 348 347 348 350 352 351 353 354 353 353 354 353 354 354 354 354 354 355 356 357 357 356 355 354 353 350 349 348 348 350 352 352 352 353 355 356 357 359
353 353 353 352 350 348 347 348 351 352 353 353 352 352 352 352 352 352 352 353 353 354 355 356 356 356 356 355 354 353 352 350 349 350 352 354 353 352 353 355 356 358
352 352 351 351 351 351 350 350 351 352 352 352 352 353 353 352 352 351 351 352 352 352 353 353 354 354 354 354 354 353 354 354 352 352 352 353 354 353 352 353 354 356
Wind_Speed
26 27 25 24 24 22 19 17 18 19 17 18 19 19 17 16 18 19 19 19 19 18 18 18 17 16 17 15 12 11 12 12 12 11 11 11 12 12 12 12 12 12
25 26 27 25 24 23 20 18 18 19 19 19 19 20 20 19 19 19 19 18 18 18 19 19 18 17 17 16 14 13 13 14 13 11 12 12 13 13 13 12 13 12
24 25 27 27 25 23 21 19 18 18 19 21 22 21 21 21 20 20 20 20 19 18 20 20 19 18 18 17 17 16 16 16 15 14 13 14 13 14 14 13 13 13
26 26 26 27 26 24 21 20 19 19 19 21 22 22 21 21 21 22 23 23 21 21 22 22 21 20 19 19 18 18 18 17 17 16 15 15 14 14 13 13 13 13
26 26 25 25 25 23 20 21 21 20 20 21 22 23 22 21 21 21 23 23 22 22 22 23 22 21 21 21 20 20 19 17 17 16 16 15 14 14 14 13 13 12
20 20 20 21 22 21 20 21 21 21 22 22 22 23 23 22 20 20 21 22 22 21 21 21 21 21 21 21 22 21 19 17 16 16 18 18 16 14 14 13 12 12
21 21 21 21 22 22 22 23 23 23 24 23 22 22 23 23 22 20 19 19 21 22 21 20 20 21 20 20 21 21 20 18 17 17 18 18 17 15 15 14 12 11
23 23 23 24 24 24 25 25 24 23 24 23 23 22 21 21 22 22 20 20 20 22 23 22 21 22 22 20 19 20 20 18 17 17 16 14 14 15 16 16 13 11
20 22 23 22 22 24 25 24 22 22 23 23 23 22 21 21 21 22 22 23 22 23 24 24 23 22 22 21 20 20 21 20 18 18 17 16 15 15 16 17 16 13
16 19 21 20 20 22 23 23 21 21 23 23 21 20 20 22 22 23 23 24 24 23 23 23 23 22 22 22 22 20 20 20 20 19 18 16 16 17 16 16 17 16
13 14 16 19 21 19 18 21 21 21 23 23 21 21 21 21 22 22 22 23 24 23 22 21 20 20 20 21 21 20 18 19 19 20 19 16 16 17 17 17 17 17
10 10 9 14 18 17 16 17 18 18 19 21 23 23 23 22 22 23 23 22 23 23 22 21 20 20 20 19 19 19 19 19 19 18 18 17 17 16 17 18 19 18
7 8 7 8 10 13 14 13 13 16 16 17 20 20 20 22 22 22 22 23 22 22 22 22 22 22 22 20 19 19 19 19 20 19 18 18 17 17 16 17 19 20
9 8 8 8 7 8 9 8 8 11 12 14 17 18 17 19 19 18 20 21 22 22 23 22 22 23 23 22 21 21 20 19 19 19 19 19 18 18 17 16 18 21
11 11 11 12 11 11 11 11 10 10 9 10 12 14 14 15 16 16 18 20 20 20 20 21 22 22 22 22 21 21 21 20 19 19 19 19 19 21 20 18 17 19
13 13 13 12 12 12 13 14 14 14 12 9 7 8 10 11 13 15 16 16 17 19 20 19 20 22 21 21 21 21 21 21 20 21 21 19 19 21 21 22 21 19
12 13 12 10 10 10 11 11 12 12 12 11 9 7 8 8 10 12 14 14 15 18 20 19 20 21 22 23 23 24 24 22 20 20 20 19 19 19 20 23 24 21
11 11 12 11 10 10 10 10 10 10 10 9 9 8 8 9 11 12 14 14 14 14 15 17 19 21 23 24 25 26 26 25 22 21 19 19 21 22 22 22 23 22
10 10 10 11 12 11 10 10 9 9 10 9 10 11 12 12 12 13 14 15 15 15 15 15 17 19 22 24 25 26 28 28 26 25 22 21 23 24 24 24 23 22
9 8 8 9 10 10 10 10 9 9 10 11 14 17 17 15 16 16 15 15 15 16 17 17 16 17 19 20 21 24 28 29 28 28 25 22 22 23 24 25 24 24
10 8 7 7 8 8 7 8 9 11 13 14 16 18 18 18 19 19 19 18 18 18 18 18 18 18 19 19 18 19 24 27 29 29 27 25 24 24 24 25 25 26
8 8 7 6 7 7 7 8 11 14 15 15 16 17 17 18 20 21 20 21 21 21 20 20 22 22 22 22 20 18 20 24 28 29 27 26 26 24 24 24 25 27
6 5 4 4 5 6 7 9 11 13 15 15 15 16 17 18 20 21 22 21 22 22 22 23 26 26 25 25 25 22 19 21 26 29 28 27 27 25 24 24 26 27
3 4 4 4 4 5 8 11 13 14 15 15 15 15 15 16 16 19 21 21 21 22 23 24 26 28 28 28 28 26 22 21 23 25 26 28 27 27 26 25 25 27
1 2 2 3 4 6 9 11 12 12 12 13 13 13 13 14 14 16 19 20 21 23 23 24 27 29 29 29 29 28 26 25 23 23 25 27 27 27 27 27 27 27
1 1 1 2 1 1 3 4 6 7 7 9 10 10 10 12 14 14 15 17 19 20 22 24 27 28 29 29 28 27 25 24 24 24 24 25 25 25 25 24 24 25
Wind_Direction
206 206 206 207 204 200 200 206 204 200 199 195 198 206 207 207 209 211 209 206 207 206 207 216 219 218 217 217 219 224 230 237 241 240 234 235 243 249 256 257 259 265
205 205 206 207 206 202 200 205 208 204 201 202 203 205 208 213 212 211 212 207 205 206 211 217 220 218 216 215 217 220 229 240 244 244 239 238 241 244 251 260 263 267
205 205 205 206 207 206 204 207 212 209 206 208 210 207 207 212 213 211 211 210 208 208 213 219 221 220 216 216 221 223 226 233 235 238 243 245 246 246 248 256 263 267
202 204 204 204 206 207 208 209 212 214 213 212 213 213 211 210 212 211 210 212 214 214 215 215 215 217 217 216 222 226 229 233 233 234 241 247 251 255 255 255 260 269
199 200 201 202 204 205 208 210 212 216 218 216 214 216 217 214 211 212 210 211 214 216 218 215 211 213 216 218 221 224 229 234 234 234 237 243 248 254 258 260 263 271
207 205 203 205 205 204 206 210 213 214 216 219 215 214 218 217 216 218 213 208 210 216 219 217 213 212 215 218 219 221 225 229 232 233 233 235 241 248 255 260 262 265
205 207 208 210 208 205 206 209 212 211 213 219 218 215 217 215 214 220 219 209 208 215 220 221 218 215 216 218 218 220 222 226 232 237 234 229 231 239 247 254 256 255
194 200 203 206 205 203 206 210 211 209 210 216 219 219 219 216 214 216 219 217 215 217 220 223 225 221 219 220 220 221 221 224 231 238 236 226 226 234 239 243 248 247
193 196 201 205 203 201 205 210 210 209 212 216 218 218 218 219 219 218 217 218 221 221 218 220 226 225 221 221 224 223 219 219 226 235 234 224 223 234 237 238 242 240
199 195 198 205 209 206 206 208 209 210 215 218 220 220 220 221 222 221 219 218 222 226 221 218 221 223 222 220 223 224 219 216 221 229 232 226 224 232 233 232 234 235
213 204 198 204 214 216 214 212 210 213 215 213 217 222 223 223 223 223 221 218 221 227 228 224 221 222 223 219 220 224 223 223 224 224 227 229 231 234 231 227 229 235
218 222 218 215 215 217 226 224 216 220 219 210 214 222 224 224 223 224 223 221 220 224 228 229 225 224 228 225 221 223 225 228 229 226 227 229 233 237 238 237 237 238
218 225 235 236 219 213 227 233 223 226 228 220 219 220 223 226 226 223 223 223 222 223 226 228 225 224 228 228 225 227 228 227 226 226 227 229 231 233 234 238 238 236
223 228 234 242 239 223 228 243 238 229 232 236 231 222 224 232 232 230 228 227 227 227 226 228 228 226 224 224 225 227 230 232 229 226 226 227 229 230 228 230 233 235
219 226 234 239 243 239 236 245 254 248 246 252 242 230 231 233 234 240 239 233 233 235 232 230 230 230 227 224 224 225 229 234 234 233 232 228 226 227 227 223 224 232
227 229 234 239 243 244 242 246 253 255 258 269 267 255 254 244 239 247 250 245 244 245 245 242 236 235 234 230 227 227 228 231 233 235 237 235 230 227 224 223 225 231
224 227 228 232 238 243 247 250 255 259 260 266 273 274 275 264 252 253 255 251 245 241 242 243 240 239 238 235 233 232 229 228 232 235 235 236 235 230 225 227 229 231
219 222 223 227 232 236 243 248 256 263 265 272 281 277 270 263 256 258 259 253 249 249 246 240 240 244 244 241 237 234 229 227 230 236 240 240 239 236 232 229 227 225
223 227 229 234 239 241 244 249 254 257 256 262 265 254 245 244 246 252 259 257 258 264 264 252 245 246 247 245 242 238 232 228 228 232 236 236 234 234 231 225 221 220
223 229 230 235 241 242 245 251 256 253 242 239 246 245 239 238 242 244 248 252 253 256 262 263 257 252 252 253 252 246 236 230 229 229 230 232 235 235 232 228 228 226
222 227 230 238 245 245 247 252 254 252 243 237 242 248 245 242 245 246 245 247 247 247 253 258 255 251 254 258 261 254 242 236 232 229 228 232 238 239 236 235 235 232
225 223 223 231 242 242 240 241 245 251 251 244 243 248 248 246 248 250 251 251 250 249 250 252 248 243 245 251 256 257 251 241 235 232 230 231 235 237 236 236 234 231
241 240 238 247 261 264 260 254 251 252 252 248 244 244 246 248 249 251 252 255 255 253 251 252 250 246 244 246 249 252 253 247 239 235 233 232 233 234 233 233 231 229
241 259 257 255 260 260 265 267 262 256 256 258 256 252 250 251 253 254 254 255 256 253 251 253 254 251 249 249 250 249 251 254 250 242 238 235 234 234 234 233 232 230
212 239 231 225 207 201 218 240 250 253 260 266 265 261 257 256 258 259 257 255 255 255 255 257 258 258 256 254 253 252 253 256 257 253 247 240 236 235 237 235 233 233
41 26 20 357 5 140 189 225 247 261 268 269 270 270 267 263 263 263 259 257 260 261 259 258 259 260 260 259 257 257 257 254 254 254 251 246 241 238 240 242 240 237